| time (UTC) | temp F | wind direction | speed MPH | gust MPH | rain 1hr in | rain 24hr in | rain mn in | humidity % | barometer mb |
| 20260903124926 | 65 | 135 | 1.0 | 2.0 | 0.00 | 0.00 | 0.00 | 99 | 1023.1 |
| 20260903124422 | 65 | 109 | 9.0 | 10.0 | 0.00 | 0.00 | 0.00 | 99 | 1023.2 |
| 20260903123920 | 65 | 109 | 9.0 | 10.0 | 0.00 | 0.00 | 0.00 | 99 | 1023.2 |
| 20260903123415 | 64 | 88 | 5.0 | 6.0 | 0.00 | 0.00 | 0.00 | 99 | 1023.3 |
| 20260903122914 | 64 | 88 | 5.0 | 6.0 | 0.00 | 0.00 | 0.00 | 99 | 1023.3 |
| 20260903122409 | 66 | 97 | 7.0 | 9.0 | 0.00 | 0.00 | 0.00 | 99 | 1022.8 |
| 20260903121908 | 66 | 97 | 7.0 | 9.0 | 0.00 | 0.00 | 0.00 | 99 | 1022.8 |
| 20260903121403 | 66 | 332 | 6.0 | 11.0 | 0.00 | 0.00 | 0.00 | 99 | 1022.8 |
| 20260903120859 | 66 | 332 | 6.0 | 11.0 | 0.00 | 0.00 | 0.00 | 99 | 1022.8 |
| 20260903120358 | 65 | 100 | 16.0 | 18.0 | 0.00 | 0.00 | 0.00 | 99 | 1022.7 |
| 20260903115856 | 65 | 100 | 16.0 | 18.0 | 0.00 | 0.00 | 0.00 | 99 | 1022.7 |
| 20260903115351 | 65 | 31 | 4.0 | 7.0 | 0.00 | 0.00 | 0.00 | 99 | 1022.7 |
| 20260903114846 | 65 | 31 | 4.0 | 7.0 | 0.00 | 0.00 | 0.00 | 99 | 1022.7 |
| 20260903114342 | 66 | 78 | 7.0 | 8.0 | 0.00 | 0.00 | 0.00 | 99 | 1023.1 |
| 20260903113837 | 66 | 78 | 7.0 | 8.0 | 0.00 | 0.00 | 0.00 | 99 | 1023.1 |
| 20260903113333 | 64 | 73 | 3.0 | 4.0 | 0.00 | 0.00 | 0.00 | 99 | 1022.9 |
| 20260903112829 | 64 | 73 | 3.0 | 4.0 | 0.00 | 0.00 | 0.00 | 99 | 1022.9 |
| 20260903112324 | 61 | 11 | 2.0 | 3.0 | 0.00 | 0.00 | 0.00 | 99 | 1022.9 |
| 20260903111823 | 61 | 11 | 2.0 | 3.0 | 0.00 | 0.00 | 0.00 | 99 | 1022.9 |
| 20260903111322 | 65 | 263 | 2.0 | 2.0 | 0.00 | 0.00 | 0.00 | 99 | 1022.9 |
| 20260903110819 | 65 | 263 | 2.0 | 2.0 | 0.00 | 0.00 | 0.00 | 99 | 1022.9 |
| 20260903110314 | 65 | 149 | 3.0 | 3.0 | 0.00 | 0.00 | 0.00 | 99 | 1022.9 |
| 20260903105809 | 65 | 149 | 3.0 | 3.0 | 0.00 | 0.00 | 0.00 | 99 | 1022.9 |
| 20260903105306 | 66 | 142 | 3.0 | 8.0 | 0.00 | 0.00 | 0.00 | 99 | 1022.8 |
| 20260903104806 | 66 | 142 | 3.0 | 8.0 | 0.00 | 0.00 | 0.00 | 99 | 1022.8 |
| 20260903104258 | 65 | 352 | 6.0 | 8.0 | 0.00 | 0.00 | 0.00 | 99 | 1022.8 |
| 20260903103754 | 65 | 352 | 6.0 | 8.0 | 0.00 | 0.00 | 0.00 | 99 | 1022.8 |
| 20260903103251 | 65 | 90 | 2.0 | 2.0 | 0.00 | 0.00 | 0.00 | 99 | 1022.8 |
| 20260903102746 | 65 | 90 | 2.0 | 2.0 | 0.00 | 0.00 | 0.00 | 99 | 1022.8 |
| 20260903102245 | 66 | 185 | 4.0 | 6.0 | 0.00 | 0.00 | 0.00 | 99 | 1023.3 |
| 20260903101744 | 66 | 185 | 4.0 | 6.0 | 0.00 | 0.00 | 0.00 | 99 | 1023.3 |
| 20260903101240 | 66 | 146 | 2.0 | 2.0 | 0.00 | 0.00 | 0.00 | 99 | 1023.2 |
| 20260903100735 | 66 | 146 | 2.0 | 2.0 | 0.00 | 0.00 | 0.00 | 99 | 1023.2 |
| 20260903100229 | 66 | 64 | 5.0 | 6.0 | 0.00 | 0.00 | 0.00 | 99 | 1023.2 |
| 20260903095727 | 66 | 64 | 5.0 | 6.0 | 0.00 | 0.00 | 0.00 | 99 | 1023.2 |
| 20260903095222 | 64 | 53 | 1.0 | 1.0 | 0.00 | 0.00 | 0.00 | 99 | 1023.2 |
| 20260903094717 | 64 | 53 | 1.0 | 1.0 | 0.00 | 0.00 | 0.00 | 99 | 1023.2 |
| 20260903094212 | 62 | 223 | 1.0 | 1.0 | 0.00 | 0.00 | 0.00 | 99 | 1023.3 |
| 20260903093708 | 62 | 223 | 1.0 | 1.0 | 0.00 | 0.00 | 0.00 | 99 | 1023.3 |
| 20260903093203 | 62 | 320 | 3.0 | 3.0 | 0.00 | 0.00 | 0.00 | 99 | 1023.4 |
| 20260903092702 | 62 | 320 | 3.0 | 3.0 | 0.00 | 0.00 | 0.00 | 99 | 1023.4 |
| 20260903092157 | 64 | 135 | 4.0 | 4.0 | 0.00 | 0.00 | 0.00 | 99 | 1023.3 |
| 20260903091655 | 64 | 135 | 4.0 | 4.0 | 0.00 | 0.00 | 0.00 | 99 | 1023.3 |
| 20260903091150 | 63 | 76 | 6.0 | 8.0 | 0.00 | 0.00 | 0.00 | 99 | 1023.3 |
| 20260903090646 | 63 | 76 | 6.0 | 8.0 | 0.00 | 0.00 | 0.00 | 99 | 1023.3 |
| 20260903090145 | 63 | 105 | 2.0 | 2.0 | 0.00 | 0.00 | 0.00 | 99 | 1023.2 |
| 20260903085644 | 63 | 105 | 2.0 | 2.0 | 0.00 | 0.00 | 0.00 | 99 | 1023.2 |
| 20260903085140 | 63 | 43 | 4.0 | 4.0 | 0.00 | 0.00 | 0.00 | 99 | 1023.4 |
| 20260903084637 | 63 | 43 | 4.0 | 4.0 | 0.00 | 0.00 | 0.00 | 99 | 1023.4 |
| 20260903084132 | 60 | 146 | 5.0 | 7.0 | 0.00 | 0.00 | 0.00 | 99 | 1023.7 |
| 20260903083627 | 60 | 146 | 5.0 | 7.0 | 0.00 | 0.00 | 0.00 | 99 | 1023.7 |
| 20260903083121 | 60 | 245 | 6.0 | 10.0 | 0.00 | 0.00 | 0.00 | 99 | 1023.6 |
| 20260903082616 | 60 | 245 | 6.0 | 10.0 | 0.00 | 0.00 | 0.00 | 99 | 1023.6 |
| 20260903082112 | 60 | 133 | 5.0 | 6.0 | 0.00 | 0.00 | 0.00 | 99 | 1023.3 |
| 20260903081607 | 60 | 133 | 5.0 | 6.0 | 0.00 | 0.00 | 0.00 | 99 | 1023.3 |
| 20260903081103 | 61 | 152 | 8.0 | 9.0 | 0.00 | 0.00 | 0.00 | 99 | 1023.4 |
| 20260903080558 | 61 | 152 | 8.0 | 9.0 | 0.00 | 0.00 | 0.00 | 99 | 1023.4 |
| 20260903080055 | 61 | 119 | 9.0 | 10.0 | 0.00 | 0.00 | 0.00 | 99 | 1023.3 |
| 20260903075550 | 61 | 119 | 9.0 | 10.0 | 0.00 | 0.00 | 0.00 | 99 | 1023.3 |
| 20260903075045 | 62 | 160 | 10.0 | 15.0 | 0.00 | 0.00 | 0.00 | 99 | 1023.2 |
| 20260903074544 | 62 | 160 | 10.0 | 15.0 | 0.00 | 0.00 | 0.00 | 99 | 1023.2 |
| 20260903074039 | 62 | 132 | 15.0 | 16.0 | 0.00 | 0.00 | 0.00 | 99 | 1023.6 |
| 20260903073535 | 62 | 132 | 15.0 | 16.0 | 0.00 | 0.00 | 0.00 | 99 | 1023.6 |
| 20260903073031 | 62 | 128 | 12.0 | 14.0 | 0.00 | 0.00 | 0.00 | 99 | 1023.6 |
| 20260903072526 | 62 | 128 | 12.0 | 14.0 | 0.00 | 0.00 | 0.00 | 99 | 1023.6 |
| 20260903072022 | 63 | 105 | 7.0 | 8.0 | 0.00 | 0.00 | 0.00 | 99 | 1023.8 |
| 20260903071519 | 63 | 105 | 7.0 | 8.0 | 0.00 | 0.00 | 0.00 | 99 | 1023.8 |
| 20260903071018 | 63 | 166 | 8.0 | 9.0 | 0.00 | 0.00 | 0.00 | 99 | 1023.9 |
| 20260903070518 | 63 | 166 | 8.0 | 9.0 | 0.00 | 0.00 | 0.00 | 99 | 1023.9 |
| 20260903070015 | 64 | 125 | 9.0 | 13.0 | 0.00 | 0.00 | 0.00 | 99 | 1024.2 |
| 20260903065508 | 64 | 125 | 9.0 | 13.0 | 0.00 | 0.00 | 0.00 | 99 | 1024.2 |
| 20260903064536 | 65 | 129 | 7.0 | 8.0 | 0.00 | 0.00 | 0.00 | 99 | 1024.3 |
| 20260903064032 | 65 | 129 | 7.0 | 8.0 | 0.00 | 0.00 | 0.00 | 99 | 1024.3 |
| 20260903063527 | 65 | 129 | 7.0 | 8.0 | 0.00 | 0.00 | 0.00 | 99 | 1024.3 |
| 20260903063022 | 67 | 105 | 5.0 | 6.0 | 0.00 | 0.00 | 0.00 | 99 | 1024.2 |
| 20260903062517 | 67 | 105 | 5.0 | 6.0 | 0.00 | 0.00 | 0.00 | 99 | 1024.2 |
| 20260903062013 | 65 | 158 | 4.0 | 4.0 | 0.00 | 0.00 | 0.00 | 99 | 1024.1 |
| 20260903061508 | 65 | 158 | 4.0 | 4.0 | 0.00 | 0.00 | 0.00 | 99 | 1024.1 |
| 20260903060346 | 65 | 30 | 2.0 | 2.0 | 0.00 | 0.00 | 0.00 | 99 | 1023.8 |
| 20260903055844 | 65 | 30 | 2.0 | 2.0 | 0.00 | 0.00 | 0.00 | 99 | 1023.8 |
| 20260903055343 | 64 | 144 | 0.0 | 0.0 | 0.00 | 0.00 | 0.00 | 99 | 1023.9 |
| 20260903054838 | 64 | 144 | 0.0 | 0.0 | 0.00 | 0.00 | 0.00 | 99 | 1023.9 |
| 20260903054338 | 64 | 247 | 0.0 | 1.0 | 0.00 | 0.00 | 0.00 | 99 | 1023.7 |
| 20260903053834 | 64 | 247 | 0.0 | 1.0 | 0.00 | 0.00 | 0.00 | 99 | 1023.7 |
| 20260903053329 | 65 | 120 | 3.0 | 3.0 | 0.00 | 0.00 | 0.00 | 99 | 1023.9 |
| 20260903052825 | 65 | 120 | 3.0 | 3.0 | 0.00 | 0.00 | 0.00 | 99 | 1023.9 |
| 20260903052320 | 65 | 299 | 7.0 | 8.0 | 0.00 | 0.00 | 0.00 | 99 | 1024.1 |
| 20260903051816 | 65 | 299 | 7.0 | 8.0 | 0.00 | 0.00 | 0.00 | 99 | 1024.1 |
| 20260903051311 | 65 | 96 | 3.0 | 3.0 | 0.00 | 0.00 | 0.00 | 99 | 1024.5 |
| 20260903050807 | 65 | 96 | 3.0 | 3.0 | 0.00 | 0.00 | 0.00 | 99 | 1024.5 |
| 20260903050306 | 65 | 92 | 0.0 | 1.0 | 0.00 | 0.00 | 0.00 | 99 | 1024.5 |
| 20260903045800 | 65 | 92 | 0.0 | 1.0 | 0.00 | 0.00 | 0.00 | 99 | 1024.5 |
| 20260903045256 | 64 | 83 | 3.0 | 3.0 | 0.00 | 0.00 | 0.00 | 99 | 1024.3 |
| 20260903044753 | 64 | 83 | 3.0 | 3.0 | 0.00 | 0.00 | 0.00 | 99 | 1024.3 |
| 20260903044247 | 65 | 100 | 3.0 | 3.0 | 0.00 | 0.00 | 0.00 | 99 | 1024.2 |
| 20260903043744 | 65 | 100 | 3.0 | 3.0 | 0.00 | 0.00 | 0.00 | 99 | 1024.2 |
| 20260903043244 | 66 | 147 | 5.0 | 6.0 | 0.00 | 0.00 | 0.00 | 99 | 1023.9 |
| 20260903042743 | 66 | 147 | 5.0 | 6.0 | 0.00 | 0.00 | 0.00 | 99 | 1023.9 |
| 20260903042239 | 66 | 157 | 8.0 | 9.0 | 0.00 | 0.00 | 0.00 | 99 | 1024.1 |
| 20260903041735 | 66 | 157 | 8.0 | 9.0 | 0.00 | 0.00 | 0.00 | 99 | 1024.1 |
| 20260903041231 | 67 | 95 | 1.0 | 2.0 | 0.00 | 0.00 | 0.00 | 99 | 1023.9 |
| 20260903040730 | 67 | 95 | 1.0 | 2.0 | 0.00 | 0.00 | 0.00 | 99 | 1023.9 |
| 20260903040225 | 67 | 80 | 3.0 | 3.0 | 0.00 | 0.00 | 0.00 | 99 | 1023.9 |
| 20260903035716 | 67 | 80 | 3.0 | 3.0 | 0.00 | 0.00 | 0.00 | 99 | 1023.9 |
| 20260903035212 | 66 | 93 | 2.0 | 2.0 | 0.00 | 0.00 | 0.00 | 99 | 1023.9 |
| 20260903034711 | 66 | 93 | 2.0 | 2.0 | 0.00 | 0.00 | 0.00 | 99 | 1023.9 |
| 20260903034206 | 65 | 206 | 1.0 | 1.0 | 0.00 | 0.00 | 0.00 | 99 | 1024.1 |
| 20260903033702 | 65 | 206 | 1.0 | 1.0 | 0.00 | 0.00 | 0.00 | 99 | 1024.1 |
| 20260903033156 | 67 | 107 | 1.0 | 2.0 | 0.00 | 0.00 | 0.00 | 99 | 1023.8 |
| 20260903032651 | 67 | 107 | 1.0 | 2.0 | 0.00 | 0.00 | 0.00 | 99 | 1023.8 |
| 20260903032146 | 66 | 67 | 5.0 | 7.0 | 0.00 | 0.00 | 0.00 | 99 | 1024.1 |
| 20260903031641 | 66 | 67 | 5.0 | 7.0 | 0.00 | 0.00 | 0.00 | 99 | 1024.1 |
| 20260903031136 | 65 | 26 | 7.0 | 8.0 | 0.00 | 0.00 | 0.00 | 99 | 1023.8 |
| 20260903030632 | 65 | 26 | 7.0 | 8.0 | 0.00 | 0.00 | 0.00 | 99 | 1023.8 |
| 20260903030127 | 65 | 82 | 2.0 | 2.0 | 0.00 | 0.00 | 0.00 | 99 | 1023.9 |
| 20260903025628 | 65 | 82 | 2.0 | 2.0 | 0.00 | 0.00 | 0.00 | 99 | 1023.9 |
| 20260903025123 | 65 | 168 | 1.0 | 1.0 | 0.00 | 0.00 | 0.00 | 99 | 1024.3 |
| 20260903024618 | 65 | 168 | 1.0 | 1.0 | 0.00 | 0.00 | 0.00 | 99 | 1024.3 |
| 20260903024113 | 67 | 130 | 1.0 | 1.0 | 0.00 | 0.00 | 0.00 | 99 | 1024.3 |
| 20260903023609 | 67 | 130 | 1.0 | 1.0 | 0.00 | 0.00 | 0.00 | 99 | 1024.3 |
| 20260903023108 | 66 | 149 | 1.0 | 1.0 | 0.00 | 0.00 | 0.00 | 99 | 1024.1 |
| 20260903022603 | 66 | 149 | 1.0 | 1.0 | 0.00 | 0.00 | 0.00 | 99 | 1024.1 |
| 20260903022102 | 66 | 356 | 2.0 | 2.0 | 0.00 | 0.00 | 0.00 | 99 | 1023.9 |
| 20260903021556 | 66 | 356 | 2.0 | 2.0 | 0.00 | 0.00 | 0.00 | 99 | 1023.9 |
| 20260903021051 | 67 | 39 | 4.0 | 4.0 | 0.00 | 0.00 | 0.00 | 99 | 1023.6 |
| 20260903020547 | 67 | 39 | 4.0 | 4.0 | 0.00 | 0.00 | 0.00 | 99 | 1023.6 |
| 20260903020046 | 65 | 345 | 2.0 | 2.0 | 0.00 | 0.00 | 0.00 | 99 | 1023.9 |
| 20260903015542 | 65 | 345 | 2.0 | 2.0 | 0.00 | 0.00 | 0.00 | 99 | 1023.9 |
| 20260903015037 | 67 | 8 | 3.0 | 3.0 | 0.00 | 0.00 | 0.00 | 99 | 1023.7 |
| 20260903014536 | 67 | 8 | 3.0 | 3.0 | 0.00 | 0.00 | 0.00 | 99 | 1023.7 |
| 20260903014032 | 66 | 146 | 0.0 | 0.0 | 0.00 | 0.00 | 0.00 | 99 | 1023.7 |
| 20260903013531 | 66 | 146 | 0.0 | 0.0 | 0.00 | 0.00 | 0.00 | 99 | 1023.7 |
| 20260903013026 | 68 | 114 | 0.0 | 0.0 | 0.00 | 0.00 | 0.00 | 99 | 1023.6 |
| 20260903012525 | 68 | 114 | 0.0 | 0.0 | 0.00 | 0.00 | 0.00 | 99 | 1023.6 |
| 20260903012024 | 69 | 113 | 2.0 | 3.0 | 0.00 | 0.00 | 0.00 | 99 | 1023.6 |
| 20260903011519 | 69 | 113 | 2.0 | 3.0 | 0.00 | 0.00 | 0.00 | 99 | 1023.6 |
| 20260903011014 | 69 | 87 | 4.0 | 4.0 | 0.00 | 0.00 | 0.00 | 99 | 1023.6 |
| 20260903010509 | 69 | 87 | 4.0 | 4.0 | 0.00 | 0.00 | 0.00 | 99 | 1023.6 |
| 20260903010008 | 68 | 50 | 4.0 | 6.0 | 0.00 | 0.00 | 0.00 | 99 | 1023.6 |
| 20260903005502 | 68 | 50 | 4.0 | 6.0 | 0.00 | 0.00 | 0.00 | 99 | 1023.6 |
| 20260903004958 | 69 | 268 | 4.0 | 4.0 | 0.00 | 0.00 | 0.00 | 99 | 1023.7 |
| 20260903004452 | 69 | 268 | 4.0 | 4.0 | 0.00 | 0.00 | 0.00 | 99 | 1023.7 |
| 20260903003948 | 69 | 54 | 10.0 | 13.0 | 0.00 | 0.00 | 0.00 | 99 | 1023.8 |
| 20260903003448 | 69 | 54 | 10.0 | 13.0 | 0.00 | 0.00 | 0.00 | 99 | 1023.8 |
| 20260903002938 | 68 | 100 | 4.0 | 6.0 | 0.00 | 0.00 | 0.00 | 99 | 1023.9 |
| 20260903002433 | 68 | 100 | 4.0 | 6.0 | 0.00 | 0.00 | 0.00 | 99 | 1023.9 |
| 20260903001932 | 68 | 66 | 8.0 | 10.0 | 0.00 | 0.00 | 0.00 | 99 | 1023.7 |
| 20260903001432 | 68 | 66 | 8.0 | 10.0 | 0.00 | 0.00 | 0.00 | 99 | 1023.7 |
| 20260903000931 | 68 | 358 | 6.0 | 8.0 | 0.00 | 0.00 | 0.00 | 99 | 1023.6 |
| 20260903000427 | 68 | 358 | 6.0 | 8.0 | 0.00 | 0.00 | 0.00 | 99 | 1023.6 |
| 20260902235925 | 66 | 61 | 17.0 | 19.0 | 0.00 | 0.00 | 0.00 | 99 | 1024.2 |
| 20260902235421 | 66 | 81 | 11.0 | 15.0 | 0.00 | 0.00 | 0.00 | 99 | 1024.6 |
| 20260902234920 | 66 | 81 | 11.0 | 15.0 | 0.00 | 0.00 | 0.00 | 99 | 1024.6 |
| 20260902234415 | 66 | 62 | 8.0 | 11.0 | 0.00 | 0.00 | 0.00 | 99 | 1024.8 |
| 20260902233914 | 66 | 62 | 8.0 | 11.0 | 0.00 | 0.00 | 0.00 | 99 | 1024.8 |
| 20260902233408 | 66 | 40 | 8.0 | 10.0 | 0.00 | 0.00 | 0.00 | 99 | 1025.0 |
| 20260902232907 | 66 | 40 | 8.0 | 10.0 | 0.00 | 0.00 | 0.00 | 99 | 1025.0 |
| 20260902232402 | 66 | 77 | 18.0 | 27.0 | 0.00 | 0.00 | 0.00 | 99 | 1025.1 |
| 20260902231856 | 66 | 77 | 18.0 | 27.0 | 0.00 | 0.00 | 0.00 | 99 | 1025.1 |
| 20260902231351 | 66 | 160 | 17.0 | 19.0 | 0.00 | 0.00 | 0.00 | 99 | 1024.8 |
| 20260902230846 | 66 | 160 | 17.0 | 19.0 | 0.00 | 0.00 | 0.00 | 99 | 1024.8 |
| 20260902230346 | 67 | 35 | 9.0 | 10.0 | 0.00 | 0.00 | 0.00 | 99 | 1025.0 |
| 20260902225839 | 67 | 35 | 9.0 | 10.0 | 0.00 | 0.00 | 0.00 | 99 | 1025.0 |
| 20260902225335 | 68 | 146 | 15.0 | 17.0 | 0.00 | 0.00 | 0.00 | 99 | 1024.7 |
| 20260902224833 | 68 | 146 | 15.0 | 17.0 | 0.00 | 0.00 | 0.00 | 99 | 1024.7 |
| 20260902224328 | 72 | 43 | 18.0 | 23.0 | 0.00 | 0.00 | 0.00 | 99 | 1024.6 |
| 20260902223825 | 72 | 43 | 18.0 | 23.0 | 0.00 | 0.00 | 0.00 | 99 | 1024.6 |
| 20260902223319 | 69 | 141 | 16.0 | 17.0 | 0.00 | 0.00 | 0.00 | 99 | 1024.2 |
| 20260902222819 | 69 | 141 | 16.0 | 17.0 | 0.00 | 0.00 | 0.00 | 99 | 1024.2 |
| 20260902222318 | 69 | 166 | 17.0 | 22.0 | 0.00 | 0.00 | 0.00 | 99 | 1024.1 |
| 20260902221812 | 69 | 166 | 17.0 | 22.0 | 0.00 | 0.00 | 0.00 | 99 | 1024.1 |
| 20260902221312 | 70 | 148 | 17.0 | 21.0 | 0.00 | 0.00 | 0.00 | 99 | 1023.9 |
| 20260902220807 | 70 | 148 | 17.0 | 21.0 | 0.00 | 0.00 | 0.00 | 99 | 1023.9 |
| 20260902220307 | 74 | 4 | 7.0 | 8.0 | 0.00 | 0.00 | 0.00 | 99 | 1023.6 |
| 20260902215802 | 74 | 4 | 7.0 | 8.0 | 0.00 | 0.00 | 0.00 | 99 | 1023.6 |
| 20260902215257 | 77 | 329 | 9.0 | 10.0 | 0.00 | 0.00 | 0.00 | 99 | 1023.3 |
| 20260902214753 | 77 | 329 | 9.0 | 10.0 | 0.00 | 0.00 | 0.00 | 99 | 1023.3 |
| 20260902214252 | 79 | 1 | 5.0 | 7.0 | 0.00 | 0.00 | 0.00 | 99 | 1023.3 |
| 20260902213749 | 79 | 1 | 5.0 | 7.0 | 0.00 | 0.00 | 0.00 | 99 | 1023.3 |
| 20260902213248 | 76 | 85 | 10.0 | 13.0 | 0.00 | 0.00 | 0.00 | 99 | 1023.4 |
| 20260902212747 | 76 | 85 | 10.0 | 13.0 | 0.00 | 0.00 | 0.00 | 99 | 1023.4 |
| 20260902212244 | 78 | 53 | 9.0 | 14.0 | 0.00 | 0.00 | 0.00 | 99 | 1023.6 |
| 20260902211739 | 78 | 53 | 9.0 | 14.0 | 0.00 | 0.00 | 0.00 | 99 | 1023.6 |
| 20260902211235 | 79 | 9 | 9.0 | 11.0 | 0.00 | 0.00 | 0.00 | 99 | 1023.6 |
| 20260902210729 | 79 | 9 | 9.0 | 11.0 | 0.00 | 0.00 | 0.00 | 99 | 1023.6 |
| 20260902210225 | 78 | 171 | 3.0 | 6.0 | 0.00 | 0.00 | 0.00 | 99 | 1023.7 |
| 20260902205722 | 78 | 171 | 3.0 | 6.0 | 0.00 | 0.00 | 0.00 | 99 | 1023.7 |
| 20260902205218 | 77 | 1 | 4.0 | 4.0 | 0.00 | 0.00 | 0.00 | 99 | 1023.9 |
| 20260902204713 | 77 | 1 | 4.0 | 4.0 | 0.00 | 0.00 | 0.00 | 99 | 1023.9 |
| 20260902204209 | 78 | 69 | 7.0 | 9.0 | 0.00 | 0.00 | 0.00 | 99 | 1024.1 |
| 20260902203703 | 78 | 69 | 7.0 | 9.0 | 0.00 | 0.00 | 0.00 | 99 | 1024.1 |
| 20260902203158 | 80 | 7 | 6.0 | 9.0 | 0.00 | 0.00 | 0.00 | 99 | 1023.9 |
| 20260902202653 | 80 | 7 | 6.0 | 9.0 | 0.00 | 0.00 | 0.00 | 99 | 1023.9 |
| 20260902202150 | 80 | 7 | 9.0 | 10.0 | 0.00 | 0.00 | 0.00 | 99 | 1024.3 |
| 20260902201646 | 80 | 7 | 9.0 | 10.0 | 0.00 | 0.00 | 0.00 | 99 | 1024.3 |
| 20260902201145 | 79 | 194 | 3.0 | 4.0 | 0.00 | 0.00 | 0.00 | 99 | 1024.1 |
| 20260902200645 | 79 | 194 | 3.0 | 4.0 | 0.00 | 0.00 | 0.00 | 99 | 1024.1 |
| 20260902200141 | 79 | 131 | 8.0 | 13.0 | 0.00 | 0.00 | 0.00 | 99 | 1024.1 |
| 20260902195636 | 79 | 131 | 8.0 | 13.0 | 0.00 | 0.00 | 0.00 | 99 | 1024.1 |
| 20260902195136 | 79 | 25 | 6.0 | 10.0 | 0.00 | 0.00 | 0.00 | 99 | 1024.5 |
| 20260902194635 | 79 | 25 | 6.0 | 10.0 | 0.00 | 0.00 | 0.00 | 99 | 1024.5 |
| 20260902194131 | 78 | 78 | 12.0 | 17.0 | 0.00 | 0.00 | 0.00 | 99 | 1024.6 |
| 20260902193627 | 78 | 78 | 12.0 | 17.0 | 0.00 | 0.00 | 0.00 | 99 | 1024.6 |
| 20260902193126 | 77 | 118 | 11.0 | 14.0 | 0.00 | 0.00 | 0.00 | 99 | 1024.2 |
| 20260902192625 | 77 | 118 | 11.0 | 14.0 | 0.00 | 0.00 | 0.00 | 99 | 1024.2 |
| 20260902192124 | 75 | 74 | 14.0 | 17.0 | 0.00 | 0.00 | 0.00 | 99 | 1024.6 |
| 20260902191619 | 75 | 74 | 14.0 | 17.0 | 0.00 | 0.00 | 0.00 | 99 | 1024.6 |
| 20260902191113 | 73 | 28 | 8.0 | 11.0 | 0.00 | 0.00 | 0.00 | 99 | 1024.8 |
| 20260902190609 | 73 | 28 | 8.0 | 11.0 | 0.00 | 0.00 | 0.00 | 99 | 1024.8 |
| 20260902190104 | 73 | 51 | 11.0 | 14.0 | 0.00 | 0.00 | 0.00 | 99 | 1025.0 |
| 20260902185600 | 73 | 51 | 11.0 | 14.0 | 0.00 | 0.00 | 0.00 | 99 | 1025.0 |
| 20260902185055 | 74 | 51 | 20.0 | 25.0 | 0.00 | 0.00 | 0.00 | 99 | 1025.0 |
| 20260902184550 | 74 | 51 | 20.0 | 25.0 | 0.00 | 0.00 | 0.00 | 99 | 1025.0 |
| 20260902184045 | 77 | 295 | 6.0 | 8.0 | 0.00 | 0.00 | 0.00 | 99 | 1025.1 |
| 20260902183542 | 77 | 295 | 6.0 | 8.0 | 0.00 | 0.00 | 0.00 | 99 | 1025.1 |
| 20260902183038 | 75 | 0 | 6.0 | 9.0 | 0.00 | 0.00 | 0.00 | 99 | 1025.5 |
| 20260902182534 | 75 | 0 | 6.0 | 9.0 | 0.00 | 0.00 | 0.00 | 99 | 1025.5 |
| 20260902182030 | 75 | 40 | 8.0 | 9.0 | 0.00 | 0.00 | 0.00 | 99 | 1025.5 |
| 20260902181526 | 75 | 40 | 8.0 | 9.0 | 0.00 | 0.00 | 0.00 | 99 | 1025.5 |
| 20260902181020 | 76 | 85 | 10.0 | 16.0 | 0.00 | 0.00 | 0.00 | 99 | 1025.3 |
| 20260902180514 | 76 | 85 | 10.0 | 16.0 | 0.00 | 0.00 | 0.00 | 99 | 1025.3 |
| 20260902180010 | 76 | 9 | 8.0 | 13.0 | 0.00 | 0.00 | 0.00 | 99 | 1025.8 |
| 20260902175505 | 76 | 9 | 8.0 | 13.0 | 0.00 | 0.00 | 0.00 | 99 | 1025.8 |
| 20260902175001 | 76 | 169 | 8.0 | 11.0 | 0.00 | 0.00 | 0.00 | 99 | 1025.8 |
| 20260902174457 | 76 | 169 | 8.0 | 11.0 | 0.00 | 0.00 | 0.00 | 99 | 1025.8 |
| 20260902173952 | 73 | 83 | 12.0 | 13.0 | 0.00 | 0.00 | 0.00 | 99 | 1025.8 |
| 20260902173452 | 73 | 83 | 12.0 | 13.0 | 0.00 | 0.00 | 0.00 | 99 | 1025.8 |
| 20260902172947 | 74 | 183 | 6.0 | 11.0 | 0.00 | 0.00 | 0.00 | 99 | 1026.1 |
| 20260902172446 | 74 | 183 | 6.0 | 11.0 | 0.00 | 0.00 | 0.00 | 99 | 1026.1 |
| 20260902171942 | 72 | 58 | 10.0 | 15.0 | 0.00 | 0.00 | 0.00 | 99 | 1026.2 |
| 20260902171437 | 72 | 58 | 10.0 | 15.0 | 0.00 | 0.00 | 0.00 | 99 | 1026.2 |
| 20260902170933 | 71 | 61 | 12.0 | 18.0 | 0.00 | 0.00 | 0.00 | 99 | 1025.7 |
| 20260902170428 | 71 | 61 | 12.0 | 18.0 | 0.00 | 0.00 | 0.00 | 99 | 1025.7 |
| 20260902165924 | 72 | 57 | 16.0 | 21.0 | 0.00 | 0.00 | 0.00 | 99 | 1025.7 |
| 20260902165422 | 72 | 57 | 16.0 | 21.0 | 0.00 | 0.00 | 0.00 | 99 | 1025.7 |
| 20260902164917 | 74 | 69 | 10.0 | 14.0 | 0.00 | 0.00 | 0.00 | 99 | 1026.0 |
| 20260902164412 | 74 | 69 | 10.0 | 14.0 | 0.00 | 0.00 | 0.00 | 99 | 1026.0 |
| 20260902163911 | 72 | 77 | 15.0 | 19.0 | 0.00 | 0.00 | 0.00 | 99 | 1026.1 |
| 20260902163407 | 72 | 77 | 15.0 | 19.0 | 0.00 | 0.00 | 0.00 | 99 | 1026.1 |
| 20260902162904 | 74 | 43 | 4.0 | 8.0 | 0.00 | 0.00 | 0.00 | 99 | 1026.1 |
| 20260902162400 | 74 | 43 | 4.0 | 8.0 | 0.00 | 0.00 | 0.00 | 99 | 1026.1 |
| 20260902161900 | 73 | 356 | 5.0 | 9.0 | 0.00 | 0.00 | 0.00 | 99 | 1026.1 |
| 20260902161355 | 73 | 356 | 5.0 | 9.0 | 0.00 | 0.00 | 0.00 | 99 | 1026.1 |
| 20260902160851 | 74 | 160 | 8.0 | 13.0 | 0.00 | 0.00 | 0.00 | 99 | 1025.7 |
| 20260902160346 | 74 | 160 | 8.0 | 13.0 | 0.00 | 0.00 | 0.00 | 99 | 1025.7 |
| 20260902155844 | 73 | 42 | 3.0 | 6.0 | 0.00 | 0.00 | 0.00 | 99 | 1026.2 |
| 20260902155343 | 73 | 42 | 3.0 | 6.0 | 0.00 | 0.00 | 0.00 | 99 | 1026.2 |
| 20260902154838 | 70 | 209 | 4.0 | 6.0 | 0.00 | 0.00 | 0.00 | 99 | 1026.1 |
| 20260902154334 | 70 | 209 | 4.0 | 6.0 | 0.00 | 0.00 | 0.00 | 99 | 1026.1 |
| 20260902153833 | 70 | 74 | 7.0 | 9.0 | 0.00 | 0.00 | 0.00 | 99 | 1025.8 |
| 20260902153332 | 69 | 334 | 3.0 | 4.0 | 0.00 | 0.00 | 0.00 | 99 | 1026.2 |
| 20260902152828 | 69 | 334 | 3.0 | 4.0 | 0.00 | 0.00 | 0.00 | 99 | 1026.2 |
| 20260902152324 | 69 | 291 | 4.0 | 6.0 | 0.00 | 0.00 | 0.00 | 99 | 1026.0 |
| 20260902151819 | 69 | 291 | 4.0 | 6.0 | 0.00 | 0.00 | 0.00 | 99 | 1026.0 |
| 20260902151315 | 69 | 96 | 1.0 | 1.0 | 0.00 | 0.00 | 0.00 | 99 | 1026.1 |
| 20260902150809 | 69 | 96 | 1.0 | 1.0 | 0.00 | 0.00 | 0.00 | 99 | 1026.1 |
| 20260902150306 | 69 | 135 | 1.0 | 1.0 | 0.00 | 0.00 | 0.00 | 99 | 1026.0 |
| 20260902145805 | 69 | 135 | 1.0 | 1.0 | 0.00 | 0.00 | 0.00 | 99 | 1026.0 |
| 20260902145300 | 68 | 278 | 4.0 | 4.0 | 0.00 | 0.00 | 0.00 | 99 | 1025.7 |
| 20260902144755 | 68 | 278 | 4.0 | 4.0 | 0.00 | 0.00 | 0.00 | 99 | 1025.7 |
| 20260902144251 | 70 | 150 | 0.0 | 0.0 | 0.00 | 0.00 | 0.00 | 99 | 1025.8 |
| 20260902143746 | 70 | 150 | 0.0 | 0.0 | 0.00 | 0.00 | 0.00 | 99 | 1025.8 |
| 20260902143241 | 68 | 82 | 2.0 | 2.0 | 0.00 | 0.00 | 0.00 | 99 | 1025.7 |
| 20260902142736 | 68 | 82 | 2.0 | 2.0 | 0.00 | 0.00 | 0.00 | 99 | 1025.7 |
| 20260902142227 | 68 | 118 | 1.0 | 1.0 | 0.00 | 0.00 | 0.00 | 99 | 1025.8 |
| 20260902141726 | 68 | 118 | 1.0 | 1.0 | 0.00 | 0.00 | 0.00 | 99 | 1025.8 |
| 20260902141223 | 64 | 153 | 0.0 | 0.0 | 0.00 | 0.00 | 0.00 | 99 | 1026.0 |
| 20260902140712 | 64 | 153 | 0.0 | 0.0 | 0.00 | 0.00 | 0.00 | 99 | 1026.0 |
| 20260902140213 | 63 | 146 | 1.0 | 1.0 | 0.00 | 0.00 | 0.00 | 99 | 1026.0 |
| 20260902135712 | 63 | 146 | 1.0 | 1.0 | 0.00 | 0.00 | 0.00 | 99 | 1026.0 |
| 20260902135208 | 61 | 79 | 3.0 | 4.0 | 0.00 | 0.00 | 0.00 | 99 | 1026.1 |
| 20260902134707 | 61 | 79 | 3.0 | 4.0 | 0.00 | 0.00 | 0.00 | 99 | 1026.1 |
| 20260902134203 | 60 | 248 | 4.0 | 6.0 | 0.00 | 0.00 | 0.00 | 99 | 1025.6 |
| 20260902133657 | 60 | 248 | 4.0 | 6.0 | 0.00 | 0.00 | 0.00 | 99 | 1025.6 |
| 20260902133156 | 62 | 340 | 4.0 | 4.0 | 0.00 | 0.00 | 0.00 | 99 | 1025.6 |
| 20260902132653 | 62 | 340 | 4.0 | 4.0 | 0.00 | 0.00 | 0.00 | 99 | 1025.6 |
| 20260902132148 | 62 | 166 | 7.0 | 8.0 | 0.00 | 0.00 | 0.00 | 99 | 1025.6 |
| 20260902131643 | 62 | 166 | 7.0 | 8.0 | 0.00 | 0.00 | 0.00 | 99 | 1025.6 |
| 20260902131138 | 62 | 137 | 8.0 | 10.0 | 0.00 | 0.00 | 0.00 | 99 | 1025.6 |
| 20260902130634 | 62 | 137 | 8.0 | 10.0 | 0.00 | 0.00 | 0.00 | 99 | 1025.6 |
| 20260902130129 | 62 | 163 | 10.0 | 11.0 | 0.00 | 0.00 | 0.00 | 99 | 1025.7 |
| 20260902125625 | 62 | 163 | 10.0 | 11.0 | 0.00 | 0.00 | 0.00 | 99 | 1025.7 |